This demonstration page uses our WeatherBlox Daily Observations layout. Learn more.

Left ArrowRight Arrow

39.51506, -84.39828

Hourly Observations for January 23, 2022

Temp ( °F °C ) Dew Point ( °F °C ) Humidity (%) Winds ( mph kmh ) Pressure ( in mb ) Visibility ( mi km ) Precip ( " mm )
12:15 am 00:15 Clear 23 -4.9 15 -9.7 69 69 WSW 6 9 30.17 1022 10 16 0.00 0.00
12:35 am 00:35 Clear 24 -4.2 14 -10 64 64 W 8 13 30.17 1022 10 16 0.00 0.00
12:55 am 00:55 Partly Cloudy 25 -4 14 -10 63 63 W 7 11 30.16 1021 10 16 0.00 0.00
1:15 am 01:15 Partly Cloudy 25 -3.8 14 -9.9 63 63 WSW 9 15 30.15 1021 10 16 0.00 0.00
1:35 am 01:35 Mostly Cloudy 25 -3.9 15 -9.7 64 64 W 8 13 30.15 1021 10 16 0.00 0.00
1:55 am 01:55 Partly Cloudy 25 -3.7 14 -9.8 63 63 WSW 9 15 30.13 1020 10 16 0.00 0.00
2:15 am 02:15 Mostly Cloudy 26 -3.6 15 -9.5 64 64 WSW 9 15 30.12 1020 10 16 0.00 0.00
2:35 am 02:35 Mostly Cloudy 26 -3.5 15 -9.7 63 63 SW 8 13 30.10 1019 10 16 0.00 0.00
2:55 am 02:55 Mostly Cloudy 26 -3.3 15 -9.3 64 64 WSW 10 17 30.10 1019 10 16 0.00 0.00
3:15 am 03:15 Mostly Cloudy 26 -3.2 15 -9.4 63 63 WSW 8 13 30.10 1019 10 16 0.00 0.00
3:35 am 03:35 Mostly Cloudy 26 -3.1 15 -9.3 63 63 WSW 9 15 30.09 1019 10 16 0.00 0.00
3:55 am 03:55 Cloudy 26 -3.1 15 -9.3 63 63 WSW 12 19 30.07 1018 10 16 0.00 0.00
4:15 am 04:15 Cloudy 27 -2.9 15 -9.4 61 61 WSW 13 20 30.06 1018 10 16 0.00 0.00
4:35 am 04:35 Mostly Cloudy 27 -3 15 -9.3 62 62 WSW 12 19 30.05 1018 10 16 0.00 0.00
4:55 am 04:55 Mostly Cloudy 27 -2.8 15 -9.3 61 61 WSW 12 19 30.04 1017 10 16 0.00 0.00
5:15 am 05:15 Cloudy 27 -2.8 16 -9.1 62 62 SW 10 17 30.03 1017 10 16 0.00 0.00
5:35 am 05:35 Partly Cloudy 27 -3 15 -9.4 62 62 SW 9 15 30.01 1016 10 16 0.00 0.00
5:55 am 05:55 Partly Cloudy 27 -3 15 -9.5 61 61 WSW 14 22 30.01 1016 10 16 0.00 0.00
6:15 am 06:15 Mostly Cloudy 27 -2.8 15 -9.3 61 61 SW 9 15 30.00 1016 10 16 0.00 0.00
6:35 am 06:35 Cloudy 27 -3 15 -9.4 62 62 SW 10 17 29.99 1016 10 16 0.00 0.00
6:55 am 06:55 Cloudy 27 -3 15 -9.3 62 62 SW 9 15 29.98 1015 10 16 0.00 0.00
7:15 am 07:15 Cloudy 27 -2.9 16 -9.1 63 63 SW 10 17 29.97 1015 10 16 0.00 0.00
7:35 am 07:35 Cloudy 27 -2.8 16 -9.1 62 62 SW 13 20 29.96 1015 10 16 0.00 0.00
7:55 am 07:55 Cloudy 27 -2.6 16 -8.9 62 62 SW 10 17 29.95 1014 10 16 0.00 0.00
8:15 am 08:15 Cloudy 28 -2.5 16 -8.8 62 62 SW 12 19 29.94 1014 10 16 0.00 0.00
8:35 am 08:35 Cloudy 28 -2.3 16 -8.8 61 61 SW 15 24 29.92 1013 10 16 0.00 0.00
8:55 am 08:55 Cloudy 28 -2.3 17 -8.6 62 62 SW 15 24 29.89 1012 10 16 0.00 0.00
9:15 am 09:15 Cloudy 29 -1.8 17 -8.4 61 61 SW 15 24 29.89 1012 10 16 0.00 0.00
9:35 am 09:35 Cloudy 30 -1.3 18 -7.9 61 61 WSW 13 20 29.89 1012 10 16 0.00 0.00
9:55 am 09:55 Cloudy with Light Snow 31 -0.8 18 -7.7 60 60 WSW 13 20 29.88 1012 10 16 0.00 0.00
10:15 am 10:15 Cloudy with Light Snow 31 -0.8 19 -7.4 61 61 W 14 22 29.88 1012 7 11 0.00 0.00
10:35 am 10:35 Cloudy with Light Snow 31 -0.6 19 -7.1 62 62 W 16 26 29.88 1012 5 8 0.00 0.00
10:55 am 10:55 Cloudy with Light Snow 31 -0.7 21 -6.1 67 67 WSW 18 30 29.88 1012 5 8 0.00 0.00
11:15 am 11:15 Cloudy with Light Snow 30 -1.1 24 -4.3 79 79 W 15 24 29.88 1012 4 6 0.00 0.00
11:35 am 11:35 Cloudy with Light Snow 29 -1.6 27 -2.9 91 91 WSW 13 20 29.87 1011 1 2 0.00 0.00
11:55 am 11:55 Cloudy with Light Snow 29 -1.6 27 -2.8 92 92 WSW 12 19 29.87 1011 7 11 0.00 0.00
12:15 pm 12:15 Cloudy with Light Snow 29 -1.4 27 -2.9 90 90 WSW 12 19 29.85 1011 10 16 0.00 0.00
12:35 pm 12:35 Cloudy with Light Snow 30 -0.9 27 -2.8 87 87 WSW 12 19 29.84 1010 10 16 0.00 0.00
12:55 pm 12:55 Cloudy 31 -0.5 27 -2.7 85 85 W 9 15 29.83 1010 10 16 0.00 0.00
1:15 pm 13:15 Cloudy 32 0.2 28 -2.5 82 82 WSW 10 17 29.81 1010 10 16 0.00 0.00
1:35 pm 13:35 Cloudy 35 1.8 27 -2.6 73 73 W 16 26 29.81 1009 10 16 0.00 0.00
1:55 pm 13:55 Cloudy 36 2.1 27 -2.9 70 70 WNW 14 22 29.81 1009 10 16 0.00 0.00
2:15 pm 14:15 Cloudy 36 2.2 27 -3 69 69 WNW 15 24 29.81 1009 10 16 0.00 0.00
2:35 pm 14:35 Cloudy 35 1.7 26 -3.3 70 70 NW 21 33 29.83 1010 10 16 0.00 0.00
2:55 pm 14:55 Cloudy 31 -0.6 25 -4 78 78 NNW 17 28 29.88 1012 10 16 0.00 0.00
3:15 pm 15:15 Cloudy 29 -1.7 23 -5.1 78 78 N 16 26 29.90 1013 10 16 0.00 0.00
3:35 pm 15:35 Cloudy 28 -2.5 20 -6.5 74 74 NNE 17 28 29.92 1013 10 16 0.00 0.00
3:55 pm 15:55 Cloudy 27 -2.7 19 -7.1 72 72 N 14 22 29.93 1014 10 16 0.00 0.00
4:15 pm 16:15 Cloudy 27 -2.9 19 -7.4 71 71 N 15 24 29.94 1014 10 16 0.00 0.00
4:35 pm 16:35 Cloudy 26 -3.1 18 -7.8 70 70 N 15 24 29.96 1015 10 16 0.00 0.00
4:55 pm 16:55 Cloudy with Light Snow 26 -3.2 18 -8 70 70 N 13 20 29.96 1015 10 16 0.00 0.00
5:15 pm 17:15 Cloudy with Light Snow 26 -3.5 18 -7.9 72 72 NNE 15 24 29.97 1015 10 16 0.00 0.00
5:35 pm 17:35 Cloudy 25 -3.7 17 -8.6 69 69 N 8 13 29.99 1015 10 16 0.00 0.00
5:55 pm 17:55 Cloudy 25 -3.9 16 -9.1 68 68 NE 9 15 30.00 1016 10 16 0.00 0.00
6:15 pm 18:15 Cloudy 25 -4 15 -9.5 66 66 NNE 7 11 30.01 1016 10 16 0.00 0.00
6:35 pm 18:35 Cloudy 24 -4.2 15 -9.5 67 67 NNE 8 13 30.02 1016 10 16 0.00 0.00
6:55 pm 18:55 Cloudy 24 -4.2 15 -9.4 67 67 N 8 13 30.03 1017 10 16 0.00 0.00
7:15 pm 19:15 Cloudy 24 -4.3 15 -9.2 69 69 N 6 9 30.05 1018 10 16 0.00 0.00
7:35 pm 19:35 Cloudy with Light Snow 24 -4.6 15 -9.4 69 69 N 7 11 30.05 1018 10 16 0.00 0.00
7:55 pm 19:55 Cloudy 24 -4.7 15 -9.5 69 69 N 7 11 30.06 1018 10 16 0.00 0.00
8:15 pm 20:15 Cloudy 23 -4.8 15 -9.5 70 70 NNE 10 17 30.06 1018 10 16 0.00 0.00
8:35 pm 20:35 Cloudy 23 -5 14 -10.2 67 67 NNE 10 17 30.06 1018 10 16 0.00 0.00
8:55 pm 20:55 Cloudy 22 -5.3 13 -10.7 66 66 N 7 11 30.06 1018 10 16 0.00 0.00
9:15 pm 21:15 Cloudy 22 -5.6 13 -10.4 69 69 NE 8 13 30.07 1018 10 16 0.00 0.00
9:35 pm 21:35 Cloudy 22 -5.8 12 -11.1 67 67 NNE 9 15 30.07 1018 10 16 0.00 0.00
9:55 pm 21:55 Cloudy 21 -5.9 12 -11 68 68 NNE 6 9 30.07 1018 10 16 0.00 0.00
10:15 pm 22:15 Cloudy 20 -6.4 12 -11.2 69 69 ENE 8 13 30.06 1018 10 16 0.00 0.00
10:35 pm 22:35 Partly Cloudy 19 -7.1 11 -11.8 69 69 ENE 8 13 30.05 1018 10 16 0.00 0.00
10:55 pm 22:55 Clear 19 -7.3 11 -11.8 71 71 ENE 5 7 30.06 1018 10 16 0.00 0.00
11:15 pm 23:15 Clear 17 -8.5 10 -12.1 76 76 Calm 30.06 1018 10 16 0.00 0.00
11:35 pm 23:35 Clear 15 -9.3 10 -12 81 81 Calm 30.05 1018 10 16 0.00 0.00
11:55 pm 23:55 Clear 15 -9.3 11 -11.6 84 84 NNW 3 6 30.06 1018 10 16 0.00 0.00

Powered by AerisWeather